Regional Weather Roundup
Issued by NWS

Home | Current Version | Previous Version | Graphics & Text | Print | Product List | Glossary On
Versions: 1 2 3 4 5 6 7 8 9 10 11 12 13 14 15 16 17 18 19 20 21 22 23 24 25 26 27 28 29 30 31 32 33 34 35 36 37 38 39 40 41 42 43 44 45 46 47 48 49 50
000
ASUS43 KLOT 211110
RWRIL

ILLINOIS REGIONAL WEATHER ROUNDUP
NATIONAL WEATHER SERVICE CHICAGO/ROMEOVILLE IL
600 AM CDT TUE OCT 21 2014

NOTE: "FAIR" INDICATES FEW OR NO CLOUDS BELOW 12,000 FEET WITH NO
SIGNIFICANT WEATHER AND/OR OBSTRUCTIONS TO VISIBILITY.

* THESE STATIONS ARE NOT UNDER NWS QUALITY CONTROL. THEY ALSO MAY NOT
  REPORT WEATHER SUCH AS PRECIPITATION OR FOG.

ILZ001-002-007-009-015-016-024-211200-
NORTHWEST ILLINOIS

CITY           SKY/WX    TMP DP  RH WIND       PRES   REMARKS
MOLINE         CLEAR     37  36  96 CALM      30.11R
STERLING*      CLEAR     41  36  81 N6        30.11R
SAVANNA*       CLEAR     40  38  93 NW5       30.12R
$$

ILZ003-004-008-010-011-017-018-211200-
NORTH CENTRAL ILLINOIS

CITY           SKY/WX    TMP DP  RH WIND       PRES   REMARKS
ROCKFORD       MOCLDY    43  39  86 N6        30.13R
FREEPORT*      CLEAR     37  36  96 CALM      30.13R
ROCHELLE*      CLEAR     40  38  96 CALM      30.11R
DE KALB*       CLOUDY    43  39  86 N7        30.10R
PERU*          CLEAR     42  39  89 N7        30.10R
$$

ILZ005-006-012>014-019>023-211200-
NORTHEAST ILLINOIS

CITY           SKY/WX    TMP DP  RH WIND       PRES   REMARKS
CHICAGO-OHARE  MOCLDY    48  40  73 N10       30.07R
CHICAGO-MIDWAY CLOUDY    51  43  74 N9        30.06R
AURORA         MOCLDY    44  39  82 N7        30.09R
LANSING*       LGT RAIN  49  45  85 N6        30.05R
JOLIET*        CLOUDY    48  43  81 N6        30.08R
WAUKEGAN       CLOUDY    45  39  79 NW6       30.08R
DUPAGE AIRPORT MOCLDY    47  40  76 N9        30.08R
KANKAKEE*      CLOUDY    48  44  85 NW6       30.07R
WHEELING       CLEAR     47  40  76 N9        30.09R
MORRIS*        CLOUDY    46  44  92 CALM      30.07R
ROMEOVILLE*    CLOUDY    48  41  77 N6        30.07R
NORTHERLY ISL    N/A     51  42  71 N15         N/A
$$

LMZ740>746-211200-
SOUTHERN LAKE MICHIGAN

STATION/POSITION SKY/WX   TEMP    WIND        PRES    VSBY  WAVE
                          AIR SEA DIR/SP/G                  HT/PER
                          (F)     (DEG/KT/KT) (MB)    (MI)  (FT/S)
SOUTHERN BUOY              49 54  340/ 21/ 25 1017.5R         6/ 7
WAUKEGAN HARBOR            46     320/  8/ 11   N/A
HARRISON CRIB              51     360/ 24/ 27   N/A
BURNHAM HARBOR             51     360/ 12/ 18   N/A
CALUMET HARBOR             51     340/ 11/ 17 1016.5R
MICHIGAN CITY              51     340/ 25/ 28   N/A
$$

ILZ025>027-034>036-040-047-049-050-058-095>099-211200-
WEST-CENTRAL ILLINOIS

CITY           SKY/WX    TMP DP  RH WIND       PRES   REMARKS
QUINCY         CLEAR     43  40  89 NE6       30.08R
GALESBURG*     CLEAR     36  35  96 CALM      30.10R
MACOMB*        CLEAR     38  37  96 N5        30.11R WCI  34
JACKSONVILLE*  CLEAR     44  41  91 N3        30.08R
PITTSFIELD*    CLEAR     46  42  86 N3        30.09R
$$

ILZ028>032-037-038-041>044-048-051>054-059>061-211200-
CENTRAL ILLINOIS

CITY           SKY/WX    TMP DP  RH WIND       PRES   REMARKS
PONTIAC        PTCLDY    46  45  93 N7        30.08R
BLOOMINGTON    CLEAR     43  40  89 N8        30.09R
DECATUR        CLEAR     45  44  97 N3        30.07R FOG
PEORIA         CLEAR     46  39  76 N3        30.09R
LACON*         CLEAR     38  37  97 CALM      30.09R
LINCOLN*       CLEAR     44  41  90 CALM      30.07R
SPRINGFIELD    CLEAR     41  40  96 CALM      30.08R
TAYLORVILLE    CLEAR     37  37 100 N5        30.07R WCI  34
$$

ILZ033-039-045-046-055>057-062-063-211200-
EAST-CENTRAL ILLINOIS

CITY           SKY/WX    TMP DP  RH WIND       PRES   REMARKS
CHAMPAIGN      CLOUDY    44  43  96 N5        30.06R FOG
DANVILLE*      CLOUDY    48  46  93 NW3       30.03R
RANTOUL*       CLOUDY    48  44  86 NW5       30.07R
MATTOON        CLEAR     42  41  96 NW5       30.05R
PARIS*         CLOUDY    46  46  99 NW3       30.06R FOG
$$

ILZ079-100>102-211200-
SOUTHWEST ILLINOIS

CITY           SKY/WX    TMP DP  RH WIND       PRES   REMARKS
ALTON          CLEAR     45  43  93 W3        30.07R
BELLEVILLE     CLEAR     45  44  97 CALM      30.05R
CAHOKIA*       CLEAR     44  42  93 CALM      30.06R
SPARTA*        CLEAR     49  44  82 W5        30.06R
$$

ILZ064>066-069>071-074>076-080>082-084>086-088>090-092>094-211200-
SOUTH-CENTRAL ILLINOIS

CITY           SKY/WX    TMP DP  RH WIND       PRES   REMARKS
CARBONDALE     CLEAR     42  40  92 CALM      30.05R
CAIRO*         CLEAR     45  43  93 CALM      30.06R
EFFINGHAM*     CLEAR     41  39  93 CALM      30.06R
MARION         CLEAR     48  46  93 CALM      30.05R
MT. VERNON     CLEAR     39  36  87 CALM      30.05R
CENTRALIA*     CLEAR     44  41  89 W3        30.05R
SALEM*         FOG       45  44  99 CALM      30.05R VSB 1
METROPOLIS*    CLEAR     45  45 100 CALM      30.05R FOG
$$

ILZ067-068-072-073-078-083-087-091-211200-
SOUTHEAST ILLINOIS

CITY           SKY/WX    TMP DP  RH WIND       PRES   REMARKS
LAWRENCEVILLE  CLEAR     43  42  97 N3        30.04R
FLORA*         CLEAR     44  44  97 CALM      30.05R
FAIRFIELD*     CLEAR     42  41  97 CALM      30.04R
HARRISBURG*    CLEAR     43  43 100 CALM      30.06R
ROBINSON*      CLEAR     43  43 100 CALM      30.06R
CARMI*         CLEAR     44  44 100 CALM      30.03S
$$

ABBREVIATIONS USED IN REMARKS
   TC - TEMPERATURE IN CELSIUS
  WCI - WIND CHILL INDEX
   HX - HEAT INDEX
  VSB - VISIBILITY
$$




USA.gov is the U.S. government's official web portal to all federal, state and local government web resources and services.